Lid_Strength_Index
3 3 3 3 3 4 4 4 4 4 3 4 4 4 4 3 3 5 8 6 4 2 1 5 6 7 9 10 10 10 12 14 13 14 12 10 11 9 9 9 9 5 4 3 2
4 3 3 3 3 4 4 4 4 4 4 4 4 4 4 4 6 8 4 2 2 2 4 6 7 8 10 10 11 12 14 13 12 12 12 11 11 11 10 10 10 9 4 3 2
4 4 4 4 4 4 5 5 4 4 4 4 4 4 4 4 10 10 1 1 -0 2 3 5 6 6 10 12 12 13 14 13 12 11 11 11 11 10 11 11 9 10 9 4 3
5 5 5 5 5 5 5 5 4 4 4 4 4 4 4 6 14 8 1 2 0 2 4 6 7 8 9 11 10 14 13 12 11 11 11 12 11 11 11 10 9 9 8 7 4
5 5 5 5 5 5 5 5 5 5 5 4 4 4 6 10 10 6 3 4 2 3 4 7 8 9 10 10 10 12 12 11 10 11 11 11 12 12 11 10 9 9 9 8 7
5 5 5 5 5 5 5 5 5 5 5 5 5 5 8 13 7 6 6 6 3 4 4 6 7 7 9 10 10 10 10 10 9 10 11 12 13 12 11 10 10 10 9 8 10
5 5 5 5 5 5 5 5 5 5 5 5 5 7 9 11 6 5 6 7 6 4 6 4 5 7 8 10 9 10 12 11 11 10 10 9 13 13 11 10 10 9 9 8 8
5 5 5 5 5 5 5 5 5 5 5 4 4 7 11 7 5 6 5 6 6 6 7 5 4 6 8 8 10 11 11 12 9 10 10 10 13 10 10 11 11 9 8 8 8
5 5 5 5 5 5 5 5 5 5 5 5 6 8 11 5 7 4 4 6 6 6 6 5 4 7 8 10 11 12 13 14 12 10 10 11 12 9 8 8 9 9 10 8 7
5 5 5 5 6 5 6 6 5 5 5 5 6 10 8 7 4 3 3 4 5 6 8 9 7 9 9 10 15 13 14 13 13 11 11 11 11 9 9 9 8 7 7 8 8
5 5 5 6 5 6 7 8 11 10 7 9 9 8 7 5 3 4 3 4 5 7 10 9 10 12 10 9 9 11 11 12 12 9 11 11 11 10 8 9 9 8 7 6 6
6 5 5 5 5 6 7 10 10 9 12 8 8 7 6 5 8 6 2 6 7 10 8 9 12 9 8 9 9 10 11 12 11 10 11 11 11 9 8 8 8 8 8 7 6
6 6 5 5 5 7 9 9 6 6 11 10 8 7 6 6 9 7 6 6 7 9 9 10 9 7 8 9 10 10 11 11 12 10 10 11 12 11 9 7 7 7 6 6 6
6 6 5 5 8 8 9 7 5 5 12 11 8 6 4 5 8 5 4 6 8 9 9 9 8 8 10 10 9 12 9 9 11 12 14 10 16 11 10 9 8 7 6 6 6
6 5 5 6 8 9 8 6 5 6 17 10 7 2 4 6 6 6 3 6 9 9 8 10 9 9 11 10 8 10 8 9 9 11 11 12 14 12 10 10 9 7 6 6 5
5 5 5 7 6 6 6 5 6 13 18 11 7 8 8 7 7 5 6 4 5 8 8 8 6 7 8 7 8 7 9 9 9 10 15 12 13 13 11 10 8 7 6 6 5
5 5 6 6 8 6 5 6 12 16 11 11 10 8 8 9 8 7 9 10 12 14 13 10 9 7 7 9 8 9 11 17 18 18 16 10 12 12 9 8 8 7 6 5 4
6 6 7 6 5 5 6 9 15 13 12 8 9 8 11 9 9 9 10 11 9 10 12 14 15 10 7 9 10 10 11 15 19 18 15 11 14 11 8 6 5 5 5 6 6
6 8 7 5 5 5 7 13 13 11 9 10 9 11 12 10 9 10 10 11 9 9 14 15 15 8 8 7 8 10 13 9 14 13 14 12 10 8 8 8 7 7 7 7 6
8 9 8 4 4 4 8 12 10 8 8 9 13 11 13 11 11 12 12 9 10 8 8 11 16 10 9 7 7 9 8 15 15 19 19 14 13 12 11 10 9 9 8 7 6
8 10 6 5 3 6 12 11 9 8 8 9 10 12 11 12 11 12 12 10 8 9 8 10 13 13 9 11 13 12 14 11 12 14 16 16 14 10 10 10 10 9 8 7 7
9 12 6 4 9 8 11 11 9 10 7 7 8 9 11 11 13 13 13 10 7 8 12 10 13 17 14 9 8 9 12 11 15 17 14 14 14 9 9 9 8 9 8 7 7
11 10 5 5 12 12 11 12 10 10 8 8 9 8 9 12 14 12 11 8 7 9 11 10 14 18 17 13 9 11 10 10 10 11 15 16 15 9 9 9 8 9 7 6 6
9 12 8 9 9 12 13 13 11 8 8 7 9 8 10 11 10 13 11 8 7 8 7 9 13 15 17 15 12 13 11 10 11 15 14 13 14 12 11 10 9 8 7 7 7
9 11 10 13 12 12 11 11 11 10 8 7 9 9 11 13 11 11 10 10 9 8 9 10 15 13 12 12 11 11 12 11 12 11 14 11 12 11 10 10 9 8 7 7 8
10 11 9 12 11 11 10 10 9 9 9 10 10 10 9 12 11 13 11 11 12 10 11 10 15 13 15 12 11 13 12 11 11 11 11 10 12 9 8 8 8 8 7 7 7
6 7 10 11 11 12 10 9 9 8 8 7 9 10 10 9 7 8 7 9 10 12 12 12 13 14 17 13 13 16 12 11 10 9 10 12 10 9 10 9 8 8 7 8 8